User: anonymous   Login
Location: Festilli
(46.4000°N, 11.6667°E)
Time: 04:18:43
(UTC+00:00)
Language:

Okean-O - Orbit

View from above orbital plane
View from above orbital plane
View from above satellite
View from above satellite

Ground track
Ground track

The orbit data is extracted from the following two-line orbital elements,

1 25860U 99039A   21134.51672185  .00000049  00000-0  14584-4 0  9996
2 25860  98.1855 164.7970 0000880 103.4097 256.7210 14.76732100174379
Epoch (UTC): 14 May 2021 12:24:04
Eccentricity: 0.0000880
inclination: 98.1855°
perigee height: 639 km
apogee height: 640 km
right ascension of ascending node: 164.7970°
argument of perigee: 103.4097°
revolutions per day: 14.76732100
mean anomaly at epoch: 256.7210°
orbit number at epoch: 17437

The dashed part of the orbit path shows where the satellite is in the earth's shadow,  

DLR